This is the latest recevied weather packets stored in our database for station/object W0VI. If no packets are shown the sender has not sent any weather packets the latest 10 day(s).
| Time | Temp. | Humidity | Pressure | Rain* | Wind** | Luminosity | Snow |
|---|---|---|---|---|---|---|---|
| 1788098018 | 20° C | 98% | 1009.8 hPa | 0 mm | - | 222 W/m² | - |
| 1788097713 | 20° C | 98% | 1010 hPa | 0 mm | - | 96 W/m² | - |
| 1788097408 | 20° C | 99% | 1009.8 hPa | 0 mm | - | 93 W/m² | - |
| 1788097105 | 20° C | 99% | 1009.9 hPa | 0 mm | - | 120 W/m² | - |
| 1788096800 | 19.44° C | 99% | 1009.8 hPa | 0 mm | - | 93 W/m² | - |
| 1788096495 | 19.44° C | 99% | 1010.2 hPa | 0 mm | - | 80 W/m² | - |
| 1788096191 | 19.44° C | 99% | 1010 hPa | 0 mm | - | 74 W/m² | - |
| 1788095890 | 19.44° C | 99% | 1010.1 hPa | 0 mm | - | 58 W/m² | - |
| 1788095584 | 19.44° C | 99% | 1010.2 hPa | 0 mm | - | 57 W/m² | - |
| 1788095279 | 19.44° C | 99% | 1010.3 hPa | 0 mm | - | 55 W/m² | - |
| 1788094974 | 19.44° C | 99% | 1010 hPa | 0 mm | - | 55 W/m² | - |
| 1788094673 | 19.44° C | 99% | 1009.8 hPa | 0 mm | - | 46 W/m² | - |
| 1788094369 | 19.44° C | 99% | 1009.6 hPa | 0 mm | - | 37 W/m² | - |
| 1788094066 | 19.44° C | 99% | 1009.7 hPa | 0 mm | - | 38 W/m² | - |
| 1788093761 | 19.44° C | 99% | 1009.7 hPa | 0 mm | - | 44 W/m² | - |
| 1788093458 | 19.44° C | 99% | 1009.8 hPa | 0 mm | - | 37 W/m² | - |
| 1788093154 | 19.44° C | 99% | 1010.1 hPa | 0 mm | - | 33 W/m² | - |
| 1788092852 | 18.89° C | 99% | 1010.3 hPa | 0 mm | - | 36 W/m² | - |
| 1788092547 | 18.89° C | 99% | 1010 hPa | 0 mm | - | 35 W/m² | - |
| 1788092242 | 18.89° C | 99% | 1009.8 hPa | 0 mm | - | 24 W/m² | - |
| 1788091941 | 18.89° C | 99% | 1010.1 hPa | 0 mm | - | 19 W/m² | - |
| 1788091636 | 18.89° C | 99% | 1009.6 hPa | 0 mm | - | 16 W/m² | - |
| 1788091333 | 18.89° C | 99% | 1009.5 hPa | 0 mm | - | 12 W/m² | - |
| 1788091029 | 18.89° C | 99% | 1009.6 hPa | 0 mm | - | 9 W/m² | - |
| 1788090724 | 18.89° C | 99% | 1009.6 hPa | 0 mm | - | 6 W/m² | - |
* Rain latest hour (hover to see other rain measurements)
** Current wind speed in m/s (hover to see current wind gust speed)